Theta_e
290 291 292 292 292 291 290 289 288 288 288 288 288 288 287 287 287 287 287 287 286 285 285 284 283 282 281 282 282 282 283 283 285 284 284 283 284 284 284 284 284 284 284 283 283 285 282 280 280 280 280 281 280 280 279 279 279 279 279 281 278 277 276 277 277 278 276 275 275 275 276 277 280 281 279 280 280 280 278 279 279 280 279 281 279
288 288 290 290 290 289 288 288 288 287 287 288 288 288 287 287 287 287 287 286 286 285 285 284 284 283 282 282 281 280 281 282 282 283 284 285 284 284 284 284 284 284 285 283 283 282 282 280 280 280 280 281 280 280 278 281 281 278 278 277 278 277 275 276 278 276 274 274 273 273 274 276 277 279 278 278 279 278 278 278 279 279 278 278 278
287 289 289 289 289 288 288 288 288 288 287 287 287 287 287 286 287 287 287 286 285 285 284 284 283 284 284 282 282 281 282 283 283 283 284 284 284 284 284 284 284 283 284 284 283 282 281 280 281 279 279 281 280 279 279 279 279 278 277 277 276 276 277 278 276 277 272 274 273 273 271 272 276 276 274 274 277 278 277 278 280 278 278 277 278
286 287 288 288 288 288 287 287 287 287 287 286 286 286 287 286 285 286 286 286 285 285 286 284 284 284 284 284 284 283 281 283 281 281 282 282 283 283 283 283 283 283 282 283 283 282 281 280 280 279 280 280 279 279 278 278 277 277 277 277 276 274 274 274 277 275 272 273 269 272 271 272 270 272 272 274 275 275 276 276 279 277 276 278 277
287 287 288 288 287 287 287 287 287 287 286 286 286 287 288 286 285 285 286 286 285 286 286 284 284 283 283 281 282 281 281 280 280 281 280 281 281 281 283 283 283 283 282 282 283 281 280 280 279 279 279 278 279 278 278 278 277 277 277 277 276 275 274 272 274 275 274 275 271 271 267 267 269 270 271 272 273 273 274 274 277 275 276 279 276
288 287 287 287 288 287 287 287 286 286 287 287 287 287 287 287 286 284 285 285 285 285 285 284 284 283 282 282 281 281 281 280 281 281 281 280 281 280 281 282 283 282 282 282 282 282 280 280 279 280 279 280 280 278 277 277 276 276 276 277 276 274 274 272 270 275 275 277 274 272 273 269 268 269 270 267 272 274 274 273 273 274 274 275 275
287 288 288 287 287 287 287 286 286 286 287 287 287 286 286 286 286 285 284 284 285 285 285 285 283 282 282 283 282 282 281 281 279 279 280 281 281 280 281 281 282 282 281 281 281 281 281 280 280 280 280 279 279 278 276 276 276 276 276 276 276 277 273 270 272 271 271 272 276 274 275 274 271 269 266 270 267 269 271 272 272 273 273 273 274
287 287 287 287 287 287 286 287 287 287 287 286 286 286 285 285 285 285 285 285 284 285 284 285 283 282 281 281 281 280 280 280 280 280 279 279 279 280 279 280 280 281 281 281 281 281 280 280 279 279 279 278 280 279 277 276 277 277 276 275 275 275 272 272 270 270 271 269 275 272 272 274 272 271 270 269 267 266 267 270 270 272 272 272 273
288 288 287 287 287 287 287 287 287 287 286 286 286 286 286 285 285 285 285 285 284 284 284 284 284 282 282 281 280 281 280 280 281 283 281 282 280 279 279 279 280 280 280 280 280 280 281 280 279 278 278 277 282 279 276 276 275 274 274 274 273 273 272 272 270 269 270 269 270 269 269 269 268 269 270 270 267 264 266 268 268 269 270 271 271
288 289 288 288 288 288 288 288 287 287 286 286 286 285 285 285 285 285 284 284 284 283 283 282 282 282 281 280 280 280 281 281 280 280 280 279 280 279 279 279 280 280 279 279 279 280 280 280 279 278 278 277 280 277 276 275 273 273 274 273 273 272 272 272 270 270 271 270 269 269 268 267 266 265 267 267 268 268 265 266 267 266 266 268 271
287 288 288 288 289 288 287 287 287 286 285 285 284 284 285 285 285 284 284 283 283 283 282 282 282 282 281 280 280 280 280 280 279 279 278 278 279 278 278 279 279 280 279 279 279 279 279 280 279 278 277 279 278 275 274 273 272 273 272 273 272 272 271 272 274 272 271 270 268 268 268 268 267 264 264 267 267 265 265 265 266 267 266 266 269
286 286 287 287 285 285 286 286 286 285 284 284 284 284 284 284 284 283 282 282 282 282 282 281 281 281 281 280 280 280 280 280 279 279 278 278 278 278 277 277 277 278 277 278 278 277 278 278 278 277 277 276 275 275 274 273 273 272 272 272 271 271 271 271 270 269 269 267 267 268 268 268 268 266 267 267 266 265 266 264 265 266 266 266 269
286 286 285 285 285 285 285 285 284 283 284 284 284 283 283 283 283 283 282 282 282 282 282 281 281 281 281 280 280 280 279 279 278 278 277 277 276 277 276 276 276 277 276 277 276 276 277 277 277 276 275 275 275 274 273 273 272 272 272 271 271 270 270 270 268 269 269 268 268 267 268 268 267 267 267 267 267 266 266 264 264 266 264 265 266
286 286 286 285 285 284 285 285 284 284 283 284 283 283 283 283 283 283 282 281 281 281 281 281 281 280 280 280 279 279 278 278 277 278 276 276 276 275 276 275 275 275 275 275 275 276 276 276 276 275 275 274 274 273 273 273 272 272 271 271 270 270 270 270 269 269 268 268 268 266 266 267 267 268 266 267 266 265 264 263 263 265 265 264 266
285 286 286 286 284 284 284 284 284 283 283 282 282 282 282 282 282 282 281 281 281 281 281 280 280 279 278 278 277 277 276 276 274 276 274 274 273 274 273 274 274 274 274 275 275 274 274 274 274 274 273 273 273 273 274 273 272 272 271 271 270 270 270 269 269 269 268 268 267 267 267 266 267 267 267 267 266 266 264 263 263 260 262 263 263
282 283 284 283 283 282 282 282 282 282 282 282 282 282 282 282 281 281 281 280 280 280 279 279 277 276 275 275 274 275 275 274 275 275 272 273 273 273 273 272 273 273 273 273 273 274 274 274 274 273 273 273 273 273 272 272 271 271 270 270 270 271 270 269 269 269 268 268 267 266 267 266 266 266 267 266 266 266 266 266 264 262 259 260 263
279 281 282 281 280 281 282 282 282 282 281 282 282 282 282 281 281 280 279 279 279 278 277 276 275 275 274 274 273 274 274 273 273 272 273 273 273 273 272 272 272 273 274 273 273 273 273 273 273 272 272 272 272 272 272 272 271 271 270 269 270 270 269 269 268 268 268 268 267 267 266 266 266 266 267 267 266 266 266 265 266 263 262 260 257
278 279 280 280 280 281 281 281 281 282 282 281 282 281 281 281 280 279 278 277 277 276 275 275 274 274 273 273 273 273 273 272 272 272 272 273 272 272 272 273 272 274 274 274 273 273 273 273 272 272 272 272 272 271 271 271 270 270 270 269 269 269 269 268 268 268 268 267 267 267 267 264 266 266 266 265 265 264 264 264 265 264 265 262 261
279 280 280 280 281 281 281 281 281 281 281 281 281 280 279 279 278 278 277 277 276 275 274 274 274 274 273 273 272 272 272 272 272 272 272 272 272 272 272 272 272 272 272 272 272 271 272 271 272 271 271 271 271 271 271 270 270 269 269 269 269 269 268 267 268 268 268 267 267 266 266 266 266 264 265 264 265 263 263 264 264 264 263 262 261
280 281 281 281 281 281 281 281 280 280 280 279 279 278 278 277 277 276 275 275 274 274 273 273 273 273 272 272 272 272 272 272 272 272 272 272 271 272 271 271 271 271 270 271 270 270 270 269 270 270 270 270 270 270 270 270 269 270 269 269 269 269 268 268 267 268 268 267 266 266 266 266 266 265 263 263 264 263 263 264 263 262 263 262 262
281 281 281 281 281 280 280 280 280 279 278 278 278 277 277 276 276 275 274 274 273 273 273 273 273 272 272 271 271 271 272 272 272 272 271 271 271 271 271 271 270 269 269 269 269 269 269 269 270 270 270 270 269 269 269 269 269 268 269 268 268 268 268 267 268 267 268 267 266 266 265 265 266 264 263 263 264 263 263 263 263 263 263 262 261
281 281 281 281 280 280 279 279 278 278 278 277 277 276 275 275 275 274 274 274 273 273 273 272 272 272 272 271 271 271 272 271 271 271 271 271 271 270 270 269 268 267 268 268 268 268 267 270 269 269 270 269 269 269 269 269 269 268 268 269 269 268 267 267 267 267 266 267 266 265 265 265 265 264 263 263 262 262 261 262 262 261 263 261 262
281 281 280 280 280 280 280 279 278 278 277 276 275 276 275 275 274 274 274 273 273 273 273 272 272 272 271 271 271 271 271 271 271 271 271 271 270 270 270 268 268 267 267 267 268 268 269 269 269 269 268 269 269 269 269 269 268 268 268 267 268 267 267 267 266 267 266 265 265 265 265 265 263 263 263 263 262 262 262 262 261 261 261 261 263
280 279 280 280 279 279 279 278 278 277 277 276 276 275 275 274 274 274 273 273 273 273 272 272 272 272 271 271 271 271 271 271 270 270 271 270 269 269 268 268 268 267 268 267 269 269 269 269 269 269 269 269 269 268 268 269 269 268 268 268 267 267 267 266 266 265 265 265 264 264 264 265 264 263 263 263 263 263 263 263 262 262 262 262 263
279 279 279 278 279 279 279 279 278 277 277 276 275 275 274 274 274 273 273 273 273 273 272 272 272 271 271 271 271 270 270 271 270 270 270 269 269 268 268 268 268 266 268 269 269 269 269 269 269 269 269 269 269 268 268 268 268 268 268 267 267 265 265 265 265 265 266 264 264 263 263 263 263 262 262 262 263 262 263 263 262 262 262 263 262
279 279 278 279 280 280 279 279 278 277 276 276 275 275 274 274 273 273 273 272 272 272 272 272 271 271 270 270 270 270 270 270 270 269 269 268 268 268 268 268 268 268 268 269 269 269 270 269 269 269 269 269 269 269 268 268 268 267 267 267 266 265 264 263 263 263 264 263 263 262 262 262 262 261 261 261 261 261 261 260 261 261 261 260 260
279 279 279 279 278 279 279 279 278 277 276 276 275 274 274 274 273 273 273 273 272 272 272 271 271 271 270 270 270 270 270 270 269 268 268 267 267 267 267 268 268 268 268 268 268 268 269 269 269 269 269 269 269 268 267 266 266 266 265 265 265 264 264 263 262 263 263 263 262 262 261 261 261 261 261 260 260 259 260 260 260 260 260 259 259
278 278 278 279 280 279 279 279 278 277 276 275 275 275 274 274 273 273 273 273 272 272 271 271 271 270 269 270 270 270 270 269 268 268 267 266 266 267 267 267 267 267 267 267 267 268 267 268 268 267 267 265 265 264 263 263 264 263 263 262 263 264 263 262 262 262 262 262 262 262 261 261 261 261 260 260 260 260 260 259 260 259 259 259 259
278 279 279 279 279 279 279 279 278 277 276 275 275 274 274 274 273 273 273 272 272 271 271 270 270 269 269 270 269 269 269 267 266 266 266 266 266 266 265 265 265 266 266 266 266 266 264 264 263 263 263 263 262 262 262 261 260 260 259 261 262 262 262 262 261 261 261 260 259 259 260 260 261 264 265 264 263 263 261 260 259 259 259 259 259
280 279 279 280 280 280 279 279 277 277 276 275 275 274 274 273 273 273 273 272 272 271 270 270 270 270 270 269 268 268 267 266 265 265 265 265 265 265 264 263 264 264 263 263 263 262 262 262 262 261 261 261 261 261 266 269 270 262 258 259 259 261 260 260 260 260 259 259 259 258 260 265 265 266 266 266 266 266 265 263 261 260 259 259 259
280 281 281 280 280 279 277 277 277 277 276 275 275 275 274 273 273 272 272 272 271 270 270 270 270 270 269 268 267 266 266 265 265 265 265 264 265 264 264 264 263 263 263 262 262 263 260 260 260 259 260 260 260 261 268 271 272 273 266 261 261 261 260 260 260 260 260 261 260 259 258 263 265 266 266 267 267 267 267 266 266 265 263 261 259
280 281 281 280 279 278 277 276 277 277 276 276 275 274 273 273 273 272 272 272 271 270 270 270 270 269 269 268 267 266 265 265 265 265 264 264 264 264 263 263 263 263 262 261 261 261 260 259 259 258 259 260 259 265 270 271 272 272 272 266 264 263 262 261 261 261 261 261 261 261 261 261 262 262 263 264 266 267 267 267 267 267 267 267 267
280 281 281 281 281 279 279 278 278 277 277 276 276 274 273 273 272 272 272 271 271 270 270 269 269 268 268 267 266 266 265 265 265 264 264 264 264 264 263 262 262 262 261 261 262 262 259 258 258 260 260 260 258 267 269 271 271 272 273 272 268 267 265 264 263 263 262 262 262 262 262 262 262 265 265 264 262 263 266 267 267 267 267 268 270
281 281 281 281 281 281 280 280 280 279 279 278 276 275 274 274 273 272 271 271 271 270 270 269 269 268 267 267 266 266 265 265 265 265 264 264 263 263 263 263 262 261 262 262 261 261 260 259 259 260 260 259 258 263 268 270 271 272 272 272 268 268 268 267 266 266 265 265 264 264 263 263 263 263 263 263 263 262 262 263 263 264 265 266 267
280 280 280 281 281 281 281 280 279 279 277 276 274 274 273 272 272 271 271 271 271 270 269 269 268 268 267 266 266 265 265 265 265 265 264 264 263 263 263 262 262 262 262 261 261 261 260 259 259 259 258 258 259 265 268 269 270 271 272 271 268 268 267 267 267 267 267 267 266 266 266 265 265 264 263 263 262 262 261 261 261 261 262 263 263
280 280 280 280 281 280 281 281 280 276 275 275 274 274 273 272 272 271 271 271 270 270 269 268 268 267 266 266 266 265 265 265 265 264 264 264 263 263 262 262 262 262 261 261 261 260 260 259 260 258 258 258 258 267 268 270 270 271 271 269 268 268 267 267 267 267 267 267 267 266 266 265 265 265 266 268 267 265 264 263 262 262 261 262 262
280 280 280 281 281 280 279 279 276 275 275 275 274 273 273 271 271 271 270 270 269 269 268 268 267 267 266 266 266 265 265 265 265 264 263 263 263 262 262 262 261 262 262 261 260 260 260 260 259 258 257 258 258 264 268 269 270 271 270 268 267 267 267 266 266 266 266 266 266 266 265 265 265 265 267 270 271 269 266 265 264 263 263 263 262
280 280 280 280 280 279 278 276 275 274 273 273 273 273 272 271 270 270 269 269 268 268 268 267 267 266 266 266 266 265 265 264 264 264 263 263 263 263 262 262 262 261 261 261 260 260 260 259 259 258 258 258 258 261 266 268 269 270 269 267 266 265 264 264 264 265 265 265 265 267 267 265 264 264 267 270 271 269 266 266 265 264 263 263 263
280 279 278 279 280 279 276 275 274 274 274 273 273 272 271 270 270 269 269 268 268 268 267 267 267 267 266 266 265 265 265 264 264 264 263 263 262 262 262 262 262 261 261 260 260 259 259 259 259 259 261 259 258 260 265 267 269 270 269 267 266 265 264 264 264 264 264 264 264 265 266 266 265 265 269 270 271 268 266 266 265 265 264 263 264
279 279 279 279 279 278 277 276 275 275 273 272 272 271 271 270 269 269 268 267 268 268 268 267 267 266 266 265 265 265 264 264 263 263 262 262 262 261 261 261 261 260 260 260 260 259 259 259 259 258 258 260 259 258 260 267 268 269 270 267 266 265 264 263 263 262 262 262 262 262 264 266 269 270 270 271 271 271 267 266 265 264 263 263 264
278 278 279 278 279 278 277 276 276 273 271 271 271 270 270 269 268 267 267 268 268 267 267 266 265 265 265 265 265 264 264 263 263 262 262 261 261 261 261 260 260 259 259 258 258 258 258 258 257 258 258 257 258 258 259 266 268 269 270 269 266 265 265 264 264 263 263 262 262 262 262 263 266 269 270 270 271 271 270 267 266 265 265 266 267
279 279 278 278 278 278 277 276 274 272 271 270 270 270 269 268 267 267 267 268 267 266 266 265 265 265 265 264 264 264 264 263 262 261 260 260 260 260 260 259 259 258 258 258 257 257 257 256 256 256 257 257 258 260 258 263 266 268 269 270 267 266 266 265 264 264 263 263 263 263 262 263 265 268 269 270 270 271 271 268 267 270 271 271 267
276 276 277 277 277 277 277 276 273 270 270 270 270 269 269 268 267 267 267 267 266 266 265 265 265 264 264 264 263 263 262 261 260 261 260 260 259 259 258 258 258 257 257 256 256 255 255 255 255 256 257 257 257 257 260 259 263 266 268 269 269 268 269 267 265 264 264 264 264 264 264 265 267 269 269 270 270 271 269 268 271 272 271 270 269
277 277 277 277 276 276 276 275 271 270 270 270 269 269 268 267 267 267 266 266 266 265 265 264 264 264 263 263 262 262 261 261 260 260 260 259 258 258 258 257 257 256 256 255 255 254 254 254 254 255 255 256 257 257 258 260 260 264 267 268 269 269 270 267 267 266 266 266 265 265 265 268 269 270 270 270 270 269 267 270 271 271 269 269 267
276 275 276 276 275 275 275 273 270 269 269 269 269 268 268 266 267 266 266 265 265 265 264 263 263 263 262 262 261 261 260 260 260 259 258 258 257 257 256 256 256 256 255 255 255 254 254 254 254 254 255 256 256 256 257 258 260 261 265 267 268 268 268 267 265 265 265 265 266 268 269 270 270 270 270 270 268 268 269 269 267 267 267 264 263
275 274 274 274 274 274 272 271 269 268 268 268 268 268 267 267 266 266 266 265 264 264 263 263 262 262 262 261 260 260 260 259 259 259 258 258 257 257 257 256 256 255 255 255 254 254 254 254 254 255 255 256 256 256 257 257 259 261 261 264 266 265 264 264 264 263 264 265 267 267 267 266 265 265 264 263 262 263 264 265 265 265 263 262 261
273 273 273 272 272 272 271 269 268 267 267 267 267 267 267 266 265 265 265 264 264 263 262 262 262 261 261 260 260 259 259 258 258 258 258 258 257 257 256 256 255 255 255 255 255 254 254 255 254 255 255 255 256 256 257 257 257 257 257 258 259 260 261 262 260 260 260 260 260 261 261 262 262 263 263 263 263 263 262 261 261 261 260 260 260
272 271 271 270 270 270 269 269 268 267 266 267 266 266 266 265 265 265 264 263 263 262 262 261 261 261 260 260 259 258 258 258 258 258 257 257 257 257 256 256 256 256 255 255 255 255 255 255 255 255 255 254 255 256 256 256 257 257 257 258 258 257 257 257 257 257 257 258 258 260 260 259 258 259 259 258 258 259 259 259 259 259 258 259 261
270 269 269 269 269 268 269 268 268 267 266 266 266 265 265 265 264 264 264 263 262 261 261 261 260 260 259 259 259 258 258 258 258 258 258 258 257 257 257 257 258 258 257 256 256 256 256 256 256 255 254 254 254 255 256 260 259 259 258 257 257 257 257 257 258 260 259 258 257 257 256 256 256 256 256 256 256 256 257 258 258 258 258 258 258
269 268 268 268 268 267 267 267 267 266 266 265 265 265 264 265 264 263 263 262 261 260 260 260 260 259 259 259 258 258 258 258 258 257 257 257 259 260 259 257 257 260 260 262 262 258 258 257 257 256 256 256 256 257 262 265 267 266 264 263 262 262 262 261 261 262 261 259 258 258 257 257 257 256 256 256 256 256 256 256 256 258 258 257 257
268 267 267 266 266 266 266 266 266 265 265 265 265 264 264 264 263 263 263 262 261 260 259 259 259 259 259 258 258 258 258 258 258 258 257 257 257 259 264 265 263 261 261 264 266 267 268 265 260 258 259 261 261 263 267 267 268 269 267 267 267 267 266 266 265 263 261 260 260 259 259 259 259 258 257 257 257 257 257 256 256 256 257 257 258
Wind_Speed
13 13 13 14 14 12 11 9 9 9 9 11 11 11 12 12 11 11 9 8 8 8 7 8 7 5 4 7 7 6 6 5 6 5 5 6 5 6 6 7 6 6 6 6 6 6 5 4 4 4 4 5 5 5 5 4 4 4 3 2 3 1 1 2 3 1 2 3 2 3 5 5 7 5 5 6 7 6 4 3 2 2 2 4 3
6 8 11 12 11 11 10 10 9 12 11 12 14 14 12 12 13 12 9 9 9 9 9 7 7 7 7 7 5 6 6 7 6 6 7 6 6 6 6 6 7 7 7 6 6 6 5 5 4 4 4 5 5 5 4 4 3 3 4 2 1 3 2 2 4 1 2 2 2 4 3 6 5 3 3 4 5 5 3 3 2 3 3 3 3
11 13 13 14 14 14 13 12 12 15 14 14 12 12 12 12 12 11 10 10 9 9 9 9 6 6 6 5 7 4 4 6 7 7 7 8 7 6 7 7 7 6 6 7 7 6 6 5 5 5 4 4 4 4 4 5 4 5 5 5 2 0 2 2 3 1 3 1 1 2 4 4 5 4 3 4 6 5 6 5 3 2 3 3 4
14 14 15 15 15 15 13 13 14 12 12 11 12 13 12 11 11 12 12 10 10 9 9 8 8 6 6 6 6 7 4 3 3 2 5 5 6 6 6 7 7 7 6 6 6 6 6 6 5 4 5 4 6 5 4 5 4 4 4 4 4 2 1 1 2 1 3 2 2 2 2 2 5 1 4 5 4 4 9 7 6 4 2 3 4
14 13 13 14 15 16 17 15 13 14 14 14 14 14 12 14 13 13 12 12 10 10 10 8 8 6 5 3 4 4 2 2 3 3 4 4 4 5 7 6 7 7 6 6 6 7 6 6 5 5 4 4 4 5 5 6 5 6 6 5 5 6 4 1 0 2 1 1 4 1 2 2 2 1 3 6 3 5 5 5 4 6 7 6 3
16 16 17 17 18 15 13 14 15 15 15 14 14 14 13 12 11 11 10 11 11 11 11 10 9 10 9 9 8 7 7 6 9 9 7 6 7 4 5 6 7 6 7 7 6 6 6 6 5 5 4 4 4 4 4 3 4 4 6 6 5 4 6 3 1 1 0 0 2 4 3 3 1 2 3 5 3 3 1 3 3 5 5 6 6
10 12 13 14 15 15 15 16 17 16 16 13 12 13 13 12 13 12 11 11 11 11 12 10 9 10 12 12 10 11 10 7 3 4 6 5 5 6 7 5 6 7 6 6 6 6 6 6 6 6 5 5 3 3 3 4 4 4 4 5 6 5 5 4 4 3 1 1 1 1 0 1 4 1 3 1 4 4 5 6 5 5 3 4 5
13 14 14 15 16 18 19 18 16 17 14 12 13 12 14 14 13 13 10 10 10 11 12 12 12 10 10 8 8 8 9 8 6 5 4 3 5 4 4 5 6 6 7 6 6 6 6 6 6 5 5 5 4 4 4 3 4 2 4 6 5 5 6 6 4 3 3 2 1 0 1 2 1 2 3 3 3 4 4 3 3 6 5 3 4
13 13 15 17 17 17 16 16 16 13 12 14 14 14 13 12 13 12 12 11 9 12 13 12 11 11 10 9 8 6 6 6 5 5 6 5 5 4 4 4 5 5 7 7 6 7 6 7 6 5 5 4 4 5 4 4 4 4 4 5 5 4 5 4 4 3 4 5 1 1 2 0 2 1 1 1 2 2 5 2 2 2 3 4 4
11 15 16 16 17 17 16 15 13 14 12 11 11 11 12 11 13 13 13 11 10 11 12 11 10 10 10 9 9 7 7 6 6 7 6 5 5 5 5 6 6 6 5 6 6 6 7 6 6 6 6 5 4 5 4 4 4 5 6 6 5 6 4 5 5 4 4 3 3 3 1 0 1 1 0 1 2 2 6 2 2 2 3 4 6
11 13 13 15 15 15 13 15 15 12 10 11 10 12 12 13 13 14 14 10 11 12 12 12 10 10 10 10 10 10 8 8 7 6 6 5 6 5 5 5 4 6 6 6 7 7 7 7 7 7 6 5 4 4 4 5 5 6 5 5 5 6 4 4 3 4 4 3 3 4 3 2 3 1 1 0 1 1 3 3 2 2 2 3 3
10 9 10 10 8 10 11 14 14 13 10 12 11 11 12 13 13 14 11 12 10 11 11 11 10 9 9 10 10 9 9 8 9 8 7 7 6 6 5 5 4 5 4 4 5 6 7 7 7 6 6 5 6 6 5 5 5 6 6 6 5 4 4 5 5 4 4 4 3 4 3 3 2 2 2 2 1 3 2 3 3 3 3 2 2
9 10 9 9 12 13 14 14 11 13 16 16 14 13 12 12 14 16 13 12 12 11 12 11 10 10 10 10 9 8 9 8 8 8 6 7 6 6 5 6 4 4 3 4 4 6 7 7 7 7 6 6 6 5 4 5 6 6 6 6 6 6 6 6 6 5 6 6 5 1 2 1 1 1 2 0 0 2 0 2 2 0 4 4 2
12 11 10 11 11 12 14 15 15 14 13 14 13 13 12 12 13 15 14 11 10 11 11 11 10 9 8 9 9 8 8 8 7 8 6 6 6 6 6 5 6 4 3 2 3 6 6 6 7 7 6 6 6 6 6 5 5 6 5 6 5 6 6 6 6 5 5 4 4 4 2 2 1 1 1 2 0 0 2 1 2 2 1 5 2
8 9 11 12 12 12 13 14 13 13 13 13 12 12 11 11 12 13 12 11 12 12 10 11 9 9 8 8 8 7 8 7 6 7 6 6 5 6 5 5 5 3 2 1 2 4 5 5 5 6 5 5 5 6 6 5 5 5 5 5 5 5 6 6 6 6 6 5 4 4 5 4 2 1 3 0 1 1 3 1 0 2 3 2 4
6 8 8 8 8 8 8 10 11 11 13 11 12 12 12 12 11 11 13 12 12 12 11 11 9 8 8 9 8 8 7 7 6 5 5 6 6 6 5 4 3 1 0 2 2 5 5 6 6 6 6 6 6 6 6 6 5 6 5 5 5 4 6 6 6 6 6 6 5 4 4 3 2 1 1 1 1 3 3 2 3 1 2 5 2
5 7 7 7 5 6 8 10 10 9 11 14 14 13 14 12 12 12 10 9 10 10 10 10 10 10 9 8 8 8 8 8 8 7 6 5 6 5 4 2 2 2 4 4 5 5 6 6 6 6 6 6 6 5 6 5 5 6 6 5 6 4 6 6 5 6 5 6 5 5 4 4 3 2 1 2 2 1 2 2 2 3 2 2 2
2 3 3 4 5 6 6 6 8 11 12 11 11 9 9 10 12 13 12 13 10 10 11 10 11 10 9 9 8 8 8 7 7 7 6 6 4 5 4 5 4 3 4 5 5 6 6 6 6 6 5 5 6 5 5 5 6 6 6 5 6 6 6 5 5 6 6 5 5 4 4 4 3 4 5 3 2 2 1 1 1 1 3 3 3
5 6 6 7 8 9 9 8 6 6 6 7 7 8 8 8 9 11 13 12 11 9 8 7 8 8 8 8 9 8 7 7 6 6 6 6 6 5 5 5 5 5 6 5 6 5 6 5 6 6 5 5 5 5 5 5 5 6 5 6 5 6 6 6 5 6 5 6 5 6 5 5 5 4 4 3 3 3 2 1 1 1 1 2 3
7 7 8 8 8 7 8 8 9 9 8 7 8 7 9 9 10 9 8 8 9 10 9 10 9 8 8 7 7 7 7 7 7 7 6 7 6 6 6 6 6 5 4 4 4 5 4 5 4 6 5 5 5 4 5 5 5 5 5 6 5 6 6 6 4 5 5 6 6 6 6 6 5 4 4 4 3 2 2 2 2 2 3 3 3
8 8 9 8 8 7 6 6 5 5 5 6 8 11 10 9 11 11 14 12 12 11 10 9 9 9 10 10 9 8 8 7 7 7 7 6 6 6 6 6 5 4 4 4 5 5 5 5 5 5 5 5 5 4 4 4 5 5 5 5 4 5 6 5 6 5 5 5 6 6 6 6 5 5 4 4 3 3 3 2 3 3 4 4 3
8 8 7 7 7 6 5 5 5 6 8 9 8 8 9 11 11 11 11 11 12 11 11 10 9 9 10 10 9 8 8 7 7 7 7 7 7 6 6 5 5 4 5 5 5 4 4 5 5 5 5 5 5 5 4 5 5 5 4 4 5 5 5 6 6 6 6 6 6 7 5 6 5 6 4 4 4 3 3 3 2 3 3 3 3
8 8 7 8 8 7 8 9 10 11 10 10 9 11 11 11 11 11 12 12 11 10 9 9 9 10 10 9 9 9 8 8 8 7 8 7 7 7 6 6 6 5 4 5 4 4 4 4 4 4 5 4 5 5 4 5 5 5 5 4 5 5 6 6 6 7 6 5 6 6 7 6 4 5 4 5 4 4 4 4 4 3 3 3 4
5 4 5 5 5 6 7 9 10 11 11 12 11 9 9 10 11 10 12 12 10 10 9 9 9 10 10 10 10 9 9 9 9 7 9 7 7 6 5 6 6 5 5 4 4 4 4 4 5 4 4 4 5 5 5 6 6 6 5 5 5 5 5 6 7 6 6 5 6 6 6 7 5 6 5 5 4 4 5 4 5 4 4 5 5
4 5 4 4 6 9 12 12 11 11 10 10 11 11 10 10 9 11 10 10 10 9 10 9 10 11 10 10 10 9 9 10 9 7 8 8 8 7 5 6 5 4 4 5 4 4 4 4 5 5 5 5 5 5 6 5 6 6 6 6 6 5 5 5 6 7 6 6 6 7 7 6 6 7 5 5 5 6 6 5 6 5 5 5 4
5 4 5 10 12 10 8 9 10 11 11 11 10 10 9 9 10 8 9 10 10 9 10 10 10 11 10 10 9 9 10 11 10 8 8 8 8 7 7 5 6 5 4 4 5 5 5 4 4 4 5 5 5 5 5 6 6 6 6 6 6 5 5 5 5 5 5 5 6 6 6 7 7 8 7 6 6 7 5 6 5 5 5 4 4
6 7 7 3 4 10 13 11 11 10 10 10 11 11 10 10 10 9 9 10 10 10 10 10 10 11 9 11 10 11 10 10 9 8 8 8 8 7 7 7 6 6 5 5 4 4 4 5 5 5 5 6 6 6 6 6 6 6 6 6 6 6 5 5 5 5 5 5 5 5 6 6 8 7 8 7 7 6 7 7 7 6 5 4 5
4 4 6 10 12 10 10 11 11 11 10 10 10 11 11 12 12 10 9 9 9 10 10 10 10 10 10 11 10 9 9 8 7 8 8 8 7 7 7 6 5 6 6 5 5 6 4 5 5 4 4 4 4 3 4 4 5 5 6 5 6 6 6 5 5 5 5 5 6 6 6 7 7 8 8 8 8 8 7 7 7 6 5 6 7
7 8 8 9 10 11 12 12 12 10 11 12 11 11 10 10 10 11 10 11 10 10 10 10 9 10 10 10 8 7 7 7 8 8 8 8 8 7 6 5 5 5 5 6 6 6 5 4 4 4 3 2 3 3 3 3 4 3 4 5 5 5 5 6 5 5 5 5 5 5 6 6 6 9 10 9 9 9 8 8 7 7 7 7 7
12 9 9 9 11 11 10 8 8 11 12 11 12 12 13 13 12 12 12 11 10 11 10 10 10 10 8 8 8 7 8 8 8 9 9 8 7 7 6 5 5 5 5 5 5 4 5 5 4 2 2 2 2 2 3 6 6 5 4 4 4 5 5 5 5 5 5 4 5 5 5 8 10 10 11 12 12 13 13 11 9 8 9 8 8
14 15 14 9 8 6 3 4 8 10 13 14 14 13 12 12 12 13 13 11 11 11 10 10 9 8 8 8 8 8 8 9 9 8 7 8 8 6 6 5 5 6 5 5 5 5 4 4 4 4 3 2 2 2 6 9 11 13 7 6 6 5 5 5 5 6 6 6 5 5 5 7 8 9 9 13 14 15 16 17 16 15 12 11 9
17 17 16 15 9 5 5 7 10 12 13 13 13 13 12 14 13 13 12 11 11 11 11 10 9 8 9 10 8 8 9 9 9 9 8 7 6 6 6 6 6 6 5 4 5 5 4 3 3 3 4 4 4 5 11 12 14 15 13 7 6 6 6 6 6 7 7 6 7 7 7 7 8 9 9 9 13 16 18 19 20 20 20 21 20
18 17 16 16 15 9 8 9 9 11 12 15 15 11 14 15 14 13 11 12 12 12 11 10 9 9 10 9 9 10 10 9 9 8 7 7 7 7 7 6 7 6 5 5 5 5 5 4 4 5 5 4 4 7 13 14 15 16 17 14 6 7 8 7 8 8 8 8 7 8 8 8 8 13 12 12 12 12 15 20 22 25 26 27 26
19 17 16 15 15 13 9 9 11 12 14 13 11 14 12 10 11 11 13 12 12 11 11 11 10 10 10 9 10 10 10 9 9 8 7 7 7 8 7 6 5 5 6 5 5 6 5 5 6 6 6 5 6 7 15 16 16 17 17 15 6 7 7 7 9 9 9 9 9 9 9 9 9 10 10 12 12 11 11 12 13 13 13 18 25
19 19 19 19 20 19 16 11 9 10 8 7 9 9 8 10 11 13 12 12 11 11 11 11 11 10 9 10 10 10 10 9 9 8 8 8 8 7 7 7 7 7 7 7 7 6 6 6 6 5 5 6 7 12 16 17 17 17 17 15 7 7 7 8 8 8 8 8 8 9 9 9 8 8 8 11 10 10 10 10 11 13 13 13 12
19 20 21 21 22 21 18 15 8 3 5 8 10 9 11 11 10 12 11 12 12 11 11 10 11 11 11 10 11 10 10 9 9 8 8 8 8 8 8 6 6 5 5 5 5 5 6 7 7 6 6 8 8 15 16 16 17 16 17 9 7 7 8 8 8 9 9 9 9 10 10 10 10 10 12 19 17 12 11 13 14 14 13 13 13
20 20 20 22 21 20 16 10 6 4 5 8 7 9 9 9 11 11 11 11 11 12 11 12 11 11 11 10 10 11 10 10 9 9 9 9 9 8 7 6 7 7 7 7 7 6 6 7 7 7 8 9 8 12 16 16 16 17 13 7 6 6 7 9 10 9 9 9 9 9 9 9 9 10 13 22 24 23 15 15 14 15 15 13 13
16 17 21 22 21 19 15 8 7 5 4 3 5 8 9 10 11 10 11 11 12 12 11 11 11 10 10 10 10 10 10 10 9 10 9 8 7 6 7 7 8 8 8 8 6 6 6 7 8 8 9 8 8 10 15 16 16 17 14 8 7 7 8 9 8 7 7 7 8 15 16 11 12 12 17 25 25 21 16 15 14 15 17 16 15
13 16 19 22 22 20 15 9 5 6 6 5 7 9 9 10 10 10 10 11 12 11 11 11 10 9 9 9 9 9 9 9 9 9 9 9 8 8 7 6 7 6 7 5 5 6 6 6 7 7 9 10 8 9 14 16 17 16 13 7 6 6 7 7 7 8 8 9 10 12 20 19 15 14 23 24 26 22 16 14 13 13 14 15 13
16 14 14 18 20 19 17 13 11 10 3 5 6 8 9 9 9 9 10 11 12 11 8 7 7 7 8 8 8 9 9 9 9 8 7 8 6 6 7 7 6 6 6 5 6 6 7 7 6 6 7 8 8 8 9 17 16 17 17 10 6 7 8 9 9 8 8 7 7 7 10 18 25 25 25 26 26 27 19 16 13 12 13 16 13
18 17 18 17 16 15 16 17 12 5 4 6 6 8 9 8 9 9 12 11 7 7 7 7 7 7 7 8 7 8 9 8 8 8 7 6 6 7 6 6 6 5 5 5 6 6 6 7 6 6 6 7 7 8 9 17 17 18 19 16 8 9 8 9 8 9 9 9 9 9 8 11 20 24 25 26 26 27 25 16 14 13 14 17 17
13 15 17 17 18 17 16 15 10 5 5 6 7 9 8 8 8 11 9 5 7 7 7 7 7 7 7 7 8 7 7 7 6 7 7 7 5 6 6 6 5 6 7 7 5 5 6 6 5 5 6 7 6 9 8 14 19 20 19 21 11 9 10 8 9 8 8 9 10 9 9 10 17 23 24 25 27 26 28 18 16 23 27 28 20
20 19 17 15 17 19 17 17 7 5 6 6 8 9 8 8 10 8 5 6 6 6 7 7 7 7 7 7 7 8 7 6 6 7 8 7 5 6 5 6 6 6 7 7 6 5 5 6 6 6 6 7 7 8 13 11 17 20 20 19 20 15 18 13 10 9 9 10 9 10 10 14 20 24 25 26 26 28 23 17 26 27 28 29 22
17 15 17 19 19 18 17 14 5 5 5 6 8 9 8 8 8 5 6 6 6 6 6 7 7 7 7 6 7 7 6 6 7 6 6 6 6 6 6 6 6 6 6 7 6 5 5 6 8 8 7 7 7 7 10 16 14 19 19 19 19 19 19 11 9 9 8 8 8 8 9 18 23 24 25 25 26 25 18 25 27 28 27 23 11
17 19 19 16 16 19 19 13 4 4 4 4 4 7 6 7 4 7 7 8 7 8 7 7 7 7 7 6 6 6 6 6 6 7 7 6 6 6 6 5 6 6 6 7 7 6 7 7 7 8 8 7 6 6 7 10 16 15 18 19 18 19 18 18 12 8 7 6 10 18 21 22 22 23 24 23 20 19 21 21 19 16 13 5 5
18 17 18 18 19 18 14 10 3 2 2 2 2 3 6 4 5 6 6 7 8 8 8 8 7 6 7 6 7 5 5 6 6 5 6 6 7 7 7 6 6 7 7 7 7 6 7 7 8 7 7 8 6 5 7 7 7 10 11 16 19 18 17 18 17 13 17 20 21 21 21 21 19 17 13 10 9 9 14 17 19 18 10 8 6
18 18 18 17 17 15 12 6 5 1 1 1 1 0 1 3 5 5 5 6 8 8 7 7 7 6 6 6 8 6 5 5 5 5 5 5 5 6 6 6 7 7 7 7 8 7 7 7 8 7 7 6 6 6 7 6 5 6 7 7 8 9 12 14 11 9 9 9 11 12 10 13 13 17 18 17 15 14 12 10 9 8 8 9 9
15 16 16 15 13 12 10 7 5 1 2 1 1 1 2 4 4 5 6 6 7 8 7 7 7 6 6 6 6 7 7 6 6 6 6 6 6 6 7 9 9 9 9 8 8 8 9 8 8 6 6 5 6 6 6 6 7 7 7 7 7 7 7 7 8 8 9 10 9 9 11 8 8 8 9 7 7 7 9 9 9 8 8 8 10
16 15 14 12 11 10 9 7 5 1 3 2 2 2 3 4 4 5 6 7 7 6 5 5 5 5 6 5 6 6 6 6 6 6 7 7 8 8 9 9 9 7 8 8 8 8 9 8 6 6 6 5 5 7 8 9 11 12 11 8 8 9 8 8 11 14 11 8 6 8 8 9 8 9 9 8 8 8 8 9 10 9 8 8 8
13 12 11 11 9 9 9 7 4 1 2 3 3 3 3 4 5 5 6 7 7 6 5 5 5 6 5 6 5 5 6 6 6 7 7 7 9 13 10 9 8 11 16 17 14 9 9 6 7 7 7 9 9 9 13 19 20 20 20 22 19 18 16 14 14 19 14 9 8 8 9 8 8 8 9 9 9 8 8 8 8 9 9 9 9
12 12 11 11 10 8 8 7 4 1 2 3 4 3 3 4 5 6 7 7 7 6 5 5 5 6 6 6 5 6 6 7 7 7 6 7 6 9 18 22 17 14 14 18 20 21 21 17 11 8 10 19 20 21 24 23 25 24 23 23 23 22 22 22 22 15 12 11 9 9 9 8 9 8 8 9 8 8 9 8 9 8 9 10 10
Wind_Direction
202 198 197 194 193 189 184 173 173 173 168 168 171 175 173 176 174 184 186 178 169 169 170 166 167 173 168 184 188 189 186 189 193 203 194 195 190 184 171 175 174 170 174 169 180 187 190 195 191 208 185 179 184 201 202 209 215 199 198 159 167 157 299 282 269 216 250 317 332 311 304 283 272 295 283 280 270 260 249 210 212 97 102 129 112
179 195 198 192 191 186 179 179 168 175 188 176 179 182 178 175 180 182 181 182 178 174 171 172 177 180 172 185 178 180 183 186 204 208 204 200 193 188 183 176 174 175 176 178 182 184 190 198 194 198 186 195 196 200 202 206 212 168 160 140 116 185 242 225 259 101 337 219 349 315 304 291 284 257 296 316 310 268 216 162 127 123 114 113 81
196 199 192 193 188 186 182 184 186 185 186 187 181 177 179 178 183 181 184 180 181 172 168 178 178 176 169 179 176 190 207 197 196 200 196 199 198 190 182 178 175 178 176 179 179 185 188 188 204 198 187 191 198 213 210 218 201 185 170 172 233 6 204 257 246 209 221 148 212 330 299 10 322 350 345 356 351 17 21 21 15 80 120 120 105
200 195 194 192 188 188 187 188 189 185 185 187 184 183 184 182 182 182 184 181 181 181 177 178 173 171 176 177 188 174 179 165 142 138 182 188 206 190 186 178 179 179 176 177 179 180 182 189 194 192 202 187 191 204 209 215 197 190 177 178 155 212 187 271 58 102 142 115 338 173 240 312 325 20 358 300 342 22 32 16 12 17 54 55 64
201 198 194 190 191 193 192 190 183 188 188 189 187 188 189 187 182 180 180 182 183 183 178 169 164 169 163 118 124 113 81 108 138 192 166 172 171 177 192 178 177 180 179 177 175 183 184 185 183 194 194 194 179 196 207 209 201 193 183 179 174 173 225 197 329 96 97 156 147 17 353 20 218 270 4 293 18 9 11 20 31 28 18 4 12
197 195 193 191 194 193 192 188 190 192 193 193 191 192 188 188 181 177 177 180 184 184 176 168 173 170 165 164 169 181 193 187 196 195 199 196 196 196 190 184 179 179 179 179 180 177 184 186 187 190 202 205 180 179 193 199 200 177 190 180 187 184 169 165 198 348 146 12 152 155 174 192 234 271 37 290 350 315 14 11 30 24 7 9 352
208 201 194 191 194 190 192 192 193 194 197 189 191 191 189 188 188 182 180 181 182 181 176 169 170 173 181 185 184 185 187 213 204 201 198 219 195 191 196 192 186 177 184 176 178 182 182 186 188 194 199 203 199 163 177 194 203 191 165 169 182 158 138 177 189 231 8 321 270 297 306 162 142 106 230 299 326 312 13 348 344 349 38 28 9
196 200 199 196 191 191 193 196 194 198 191 186 191 190 190 188 186 187 183 180 183 177 179 177 173 175 172 177 181 184 191 200 196 201 190 170 152 180 179 183 182 180 177 184 179 179 180 183 182 182 186 196 188 191 191 200 199 176 156 167 158 156 147 157 185 175 165 271 100 349 340 326 271 165 166 175 234 273 298 337 345 323 349 18 38
197 197 199 197 197 197 195 195 200 193 189 189 191 191 189 185 184 185 186 183 179 176 178 182 177 175 173 169 179 192 181 188 176 159 155 155 147 165 149 170 176 185 180 183 190 186 183 183 180 179 176 185 181 191 195 179 182 150 143 140 141 143 140 150 140 191 140 203 208 305 57 26 30 1 213 126 168 266 287 265 292 325 2 333 32
206 204 201 200 200 198 196 194 190 196 194 191 189 185 186 181 182 182 187 183 175 172 170 174 172 166 170 178 177 178 173 172 156 163 167 159 170 181 178 175 181 185 197 194 193 194 187 181 178 178 178 181 178 189 197 187 168 157 161 158 151 138 144 136 152 179 170 175 145 174 114 4 28 357 5 346 308 233 251 283 321 15 347 304 338
208 208 207 205 199 195 186 191 195 189 189 186 185 184 183 181 180 182 184 175 170 169 165 169 168 169 175 176 177 177 178 167 165 172 166 159 174 193 183 194 189 192 185 196 195 190 188 181 178 179 174 174 169 169 176 160 152 151 155 143 148 151 144 150 143 158 136 127 125 132 161 153 183 167 234 317 173 281 332 305 319 299 253 310 300
208 203 209 202 190 195 187 195 190 189 178 184 185 182 181 181 176 176 175 173 171 166 165 165 166 172 171 171 176 176 171 172 173 174 173 173 177 187 193 179 200 206 202 190 190 185 178 179 176 170 170 162 162 157 155 150 144 139 144 151 159 162 149 140 138 142 147 138 131 130 141 145 139 143 212 173 168 206 193 241 273 293 315 245 300
199 203 197 190 190 187 190 193 181 181 188 185 182 179 179 176 176 172 178 174 170 166 168 166 165 171 169 170 172 167 167 166 167 169 174 174 172 173 169 180 188 180 196 176 192 181 177 171 168 164 165 163 154 141 144 139 140 142 148 151 154 161 165 156 151 163 154 161 177 135 137 102 157 131 124 140 142 149 94 323 265 229 261 302 304
205 199 194 194 192 192 189 183 185 185 184 182 178 176 177 178 178 176 176 172 165 165 167 167 173 170 167 166 166 164 164 162 166 166 171 166 163 164 166 171 165 179 171 189 193 177 181 176 167 165 162 157 149 144 140 139 139 147 148 149 159 165 155 156 153 153 152 160 152 133 122 147 171 136 117 104 288 41 285 240 264 319 300 288 296
208 202 201 197 194 186 183 184 182 182 178 176 177 177 173 177 178 176 168 175 169 169 164 167 168 166 162 158 155 155 157 153 158 157 153 142 143 134 130 129 133 159 164 196 182 137 149 142 146 140 139 136 136 137 137 134 138 135 144 156 152 154 155 149 155 144 147 148 135 162 155 130 152 117 106 90 134 154 163 207 141 303 319 287 292
204 211 215 212 193 183 178 180 183 177 177 175 176 176 178 179 178 177 174 171 169 164 168 164 161 156 151 150 151 147 142 141 134 130 136 138 138 140 137 135 154 175 177 111 102 126 131 130 126 129 129 129 134 137 139 137 141 138 138 141 152 157 151 155 164 153 157 157 153 147 141 194 152 154 137 160 137 149 136 142 122 139 228 285 282
206 208 210 200 180 193 191 183 177 177 178 184 184 181 179 171 171 170 168 168 169 169 161 158 155 152 154 147 146 145 149 156 152 147 140 136 131 133 141 146 119 113 104 125 115 113 123 126 125 129 127 129 132 139 142 144 144 148 151 149 150 152 145 161 154 157 167 154 160 159 164 188 208 161 164 156 154 117 129 138 144 177 186 236 265
232 240 225 207 207 196 192 195 193 188 184 179 180 178 174 172 170 166 167 170 174 166 162 161 157 155 154 154 151 151 152 149 144 146 144 131 126 119 115 107 112 115 121 124 124 121 120 122 125 130 133 131 135 137 139 144 144 155 161 157 161 149 150 152 155 153 163 159 165 174 170 182 196 178 190 175 137 135 120 119 126 150 161 193 221
229 222 209 206 203 202 196 196 191 186 184 180 165 162 164 167 171 171 172 171 167 163 157 156 157 156 157 156 152 149 148 141 143 142 138 137 132 131 120 126 112 117 116 124 124 126 125 123 123 129 131 137 136 140 142 141 144 150 160 156 159 148 155 164 170 154 168 155 171 180 185 188 188 182 183 168 158 150 162 152 173 173 228 190 217
230 224 218 213 211 204 198 191 188 186 178 174 166 160 169 169 166 167 159 157 161 165 162 163 162 155 153 147 148 146 148 146 152 146 140 145 144 134 130 122 131 121 120 122 125 132 133 131 132 130 137 138 142 144 145 150 146 156 154 162 167 154 160 168 174 167 166 163 165 178 188 188 189 171 178 179 187 188 179 197 216 228 236 231 219
231 224 219 214 208 201 196 192 183 170 173 169 175 178 172 164 172 171 168 169 170 170 165 166 160 160 155 155 154 152 154 150 147 147 142 146 141 134 132 136 124 129 126 123 126 133 137 136 140 140 144 152 149 155 154 151 153 166 164 162 169 167 166 177 167 174 176 167 179 181 186 186 173 171 185 186 181 198 190 195 214 212 226 232 218
231 225 216 210 203 194 184 173 168 172 181 183 183 173 174 178 177 171 170 176 171 173 174 165 163 160 159 155 154 154 156 152 149 152 151 147 139 136 138 130 131 146 127 136 137 138 139 143 139 154 150 152 161 159 164 156 160 163 172 167 167 166 178 178 175 184 182 181 178 182 192 185 179 173 177 180 176 168 165 181 199 194 224 227 235
231 221 210 205 195 188 182 180 183 188 186 183 182 186 184 179 174 178 176 181 175 172 168 165 163 162 159 155 155 158 157 160 153 157 156 149 141 141 140 136 139 141 136 139 151 146 151 151 156 155 163 161 165 172 168 163 171 168 175 176 179 172 174 185 181 189 186 180 183 187 195 187 177 174 191 193 184 193 192 194 216 207 214 229 237
253 226 210 199 181 172 176 189 192 192 190 191 189 186 183 184 182 177 182 176 172 171 168 167 166 163 157 157 163 161 158 166 167 163 161 149 145 146 146 141 143 140 146 161 153 163 156 161 167 172 168 175 175 179 182 177 176 177 182 188 182 182 178 180 184 188 191 184 185 189 200 189 187 186 197 198 205 205 207 216 220 229 223 233 231
243 219 198 170 179 190 199 198 195 195 192 191 190 190 187 187 182 184 182 175 171 170 170 170 167 163 162 164 167 166 166 173 172 163 159 149 150 149 150 151 148 149 163 163 181 167 172 168 174 178 183 183 190 185 186 187 187 182 185 189 189 183 186 189 188 190 190 190 192 190 195 188 186 191 203 200 203 207 211 208 216 219 222 227 232
245 212 176 200 203 204 204 202 200 196 194 191 191 191 190 189 191 183 178 176 178 172 173 169 170 168 169 169 170 170 175 175 172 160 157 154 152 152 155 156 157 164 170 175 174 183 177 186 178 190 189 196 201 198 194 195 192 191 189 189 188 184 183 185 193 197 194 189 188 188 187 182 185 188 201 204 203 206 200 203 205 212 210 211 215
244 219 221 218 217 214 213 206 202 197 193 192 190 191 190 190 190 188 185 179 178 175 174 173 172 173 172 175 175 177 177 173 167 155 153 154 155 156 154 159 162 169 177 188 191 186 195 186 198 191 201 203 205 203 199 200 197 189 184 182 186 188 189 187 189 189 190 189 186 186 186 185 188 192 196 200 202 206 202 208 206 208 211 212 225
274 239 218 216 221 220 213 209 201 199 192 192 193 192 191 190 190 185 181 181 182 179 179 177 174 175 177 179 177 176 175 165 149 149 155 155 156 158 157 159 156 175 188 196 199 196 193 183 191 181 178 167 168 163 172 178 183 180 177 184 186 188 194 197 197 197 196 196 194 193 194 197 196 200 198 207 198 209 206 217 215 210 211 218 229
302 259 243 236 231 224 217 207 204 192 193 195 191 192 191 192 189 185 181 186 178 177 181 180 177 179 180 176 170 170 163 145 147 151 156 161 161 159 158 166 175 187 194 195 185 164 150 144 132 140 135 130 140 159 157 151 142 155 166 177 183 189 189 197 198 203 203 202 201 196 200 204 207 209 205 201 202 200 200 216 218 206 213 215 228
318 297 269 254 246 237 225 209 195 197 198 195 196 196 195 191 188 185 183 182 170 181 179 183 184 183 174 169 163 160 158 147 152 162 164 162 161 162 167 177 189 185 175 165 149 148 154 162 163 157 143 137 161 164 183 193 192 165 170 169 175 183 188 191 200 207 221 214 210 209 210 209 211 212 213 212 210 210 209 205 208 200 211 217 224
344 338 328 306 285 290 294 224 215 207 206 202 202 199 192 190 188 186 183 178 172 176 182 183 186 178 172 164 160 161 155 162 166 163 165 164 166 167 174 183 183 175 165 158 151 153 162 161 170 186 213 223 208 200 225 234 233 221 189 189 187 203 197 201 202 208 220 227 228 221 218 225 226 228 228 227 224 222 221 219 216 210 206 211 225
348 343 339 337 320 272 233 223 219 217 212 207 204 198 188 195 188 185 179 170 172 178 181 184 181 170 172 168 164 158 164 169 168 173 170 168 164 170 177 180 176 172 169 151 160 178 174 180 180 197 212 223 228 227 239 241 242 243 238 202 193 202 207 210 212 216 220 219 226 227 228 224 228 231 233 239 239 236 233 230 231 231 229 224 224
337 333 332 329 325 298 255 241 236 227 218 215 204 188 196 193 185 182 164 172 177 178 179 180 177 171 172 170 164 166 170 172 179 174 169 166 171 176 178 175 181 175 155 164 183 174 196 196 191 203 218 224 230 240 240 243 244 245 242 241 201 200 210 215 216 219 221 222 221 227 233 231 229 229 231 234 236 241 244 246 246 248 250 249 249
333 329 328 328 323 312 283 254 246 239 226 219 196 198 197 181 173 165 174 175 173 178 179 180 176 175 171 171 170 172 177 180 177 174 170 172 175 184 181 174 165 161 172 181 184 192 195 198 200 203 214 221 228 235 242 245 246 244 245 245 238 227 221 215 216 217 219 220 218 222 227 231 227 226 230 232 233 235 235 242 246 245 245 246 247
330 332 336 334 329 318 307 295 274 250 228 187 195 190 169 169 169 175 177 173 177 175 179 179 180 177 171 171 174 178 181 180 179 175 174 177 180 178 173 175 171 179 181 188 191 194 198 196 201 203 211 230 232 233 240 242 244 246 247 250 244 237 235 234 233 231 230 229 226 225 229 233 229 219 217 224 230 234 234 235 237 240 242 244 240
332 335 332 331 328 320 311 307 305 254 214 198 196 175 169 178 169 173 175 178 176 177 178 175 180 180 178 177 176 181 182 180 180 177 177 180 180 180 179 174 172 181 184 179 200 193 201 205 209 207 216 234 237 235 239 241 244 247 249 249 243 241 241 238 237 236 234 235 235 237 240 240 236 233 230 236 240 235 231 235 236 238 240 240 240
330 331 328 327 322 317 309 305 293 249 216 209 184 172 171 162 172 177 173 176 176 182 181 180 182 178 179 179 181 182 183 181 181 179 182 183 179 180 179 168 176 185 188 193 198 202 203 205 211 210 212 230 234 236 241 245 248 250 252 252 246 243 240 237 238 235 236 235 237 237 241 244 243 244 239 249 253 254 249 239 235 237 239 237 241
324 329 328 326 321 315 308 304 284 258 236 208 174 173 168 172 177 174 173 178 182 189 182 180 182 177 178 181 183 182 183 184 182 186 184 184 180 179 179 175 183 188 196 199 196 202 208 202 204 208 209 218 235 234 241 248 250 251 250 244 239 244 247 250 252 245 241 243 240 241 244 242 243 245 247 254 255 255 254 253 252 250 245 241 243
326 329 327 321 317 311 298 294 272 251 225 189 181 173 172 180 178 177 179 181 189 187 184 182 177 175 179 177 181 184 186 185 187 188 181 181 182 182 177 173 185 186 200 191 197 206 213 216 211 213 212 216 236 239 243 250 250 251 251 246 244 245 250 245 244 243 235 238 239 240 244 246 247 246 251 253 253 252 253 254 252 250 250 248 244
322 321 318 313 310 308 300 288 267 253 198 177 174 178 184 180 179 174 183 193 194 189 172 163 165 168 171 178 183 186 188 186 187 183 180 184 171 162 172 180 187 186 193 195 201 205 212 220 216 215 222 222 228 239 237 248 251 252 253 248 228 231 236 240 239 243 250 247 242 243 239 246 252 254 254 255 254 252 247 242 233 231 238 246 246
320 319 320 314 310 304 294 288 280 253 180 180 174 179 189 184 176 180 199 197 177 154 156 157 155 165 175 182 185 187 187 188 184 180 176 169 169 176 173 179 187 188 190 199 204 208 216 228 224 223 225 232 226 237 244 249 253 255 256 255 244 238 238 240 239 239 238 242 241 241 241 239 249 257 260 260 261 260 258 254 246 242 241 248 250
311 310 315 316 311 305 296 284 266 214 190 183 183 190 190 178 180 201 198 146 142 154 151 155 165 171 179 183 186 187 184 180 172 161 166 177 179 170 174 178 182 184 198 209 206 211 216 234 235 231 229 235 232 231 244 256 259 261 260 257 253 243 245 244 247 235 234 237 240 244 240 229 239 256 258 259 259 260 260 261 261 260 257 255 251
318 317 317 315 309 305 300 289 262 204 189 191 187 195 189 183 200 198 138 140 142 149 155 161 168 177 181 183 182 178 176 167 171 173 172 179 169 171 177 174 181 192 203 214 217 216 222 238 250 247 241 241 242 242 245 251 260 262 263 263 262 260 258 256 248 242 235 242 239 239 239 229 243 257 259 258 258 259 260 259 261 263 264 264 264
309 312 317 315 308 304 299 289 236 207 195 193 192 199 193 191 201 126 135 136 146 151 158 165 174 180 176 178 176 175 170 168 170 168 174 173 178 180 180 186 184 191 202 217 225 216 220 233 243 253 247 243 238 238 244 247 253 260 266 267 267 266 265 260 256 256 256 252 247 237 232 240 256 260 260 259 257 255 253 254 255 257 264 272 283
323 319 315 311 308 306 301 289 236 207 196 202 204 202 192 194 162 135 152 156 156 158 163 172 176 177 176 173 165 168 171 172 174 169 175 182 183 174 188 192 188 200 206 216 224 210 217 227 236 244 254 251 235 229 242 245 247 249 261 267 269 270 271 272 273 279 284 285 283 277 272 268 265 263 265 269 271 276 279 282 285 290 291 300 289
318 318 322 319 315 309 297 281 258 199 194 191 212 188 198 189 137 152 155 154 155 159 169 176 173 174 174 163 165 166 171 174 175 183 186 185 183 186 195 193 197 207 207 213 224 217 223 227 234 239 245 254 250 238 244 245 244 249 255 264 270 276 279 278 277 278 279 280 278 278 279 283 288 291 293 289 281 275 274 275 277 279 280 275 269
325 323 324 321 319 313 307 293 276 193 179 134 176 108 124 118 151 148 147 153 159 166 171 173 175 171 165 168 173 173 175 177 182 185 189 186 187 190 199 204 202 207 211 215 222 222 228 229 233 235 240 243 251 254 254 254 241 242 248 254 261 265 265 266 267 265 269 267 266 263 255 256 258 264 267 269 269 270 272 271 266 264 260 259 260
323 321 323 321 322 321 317 312 288 355 142 169 129 73 95 126 146 151 152 154 164 174 178 180 177 170 174 175 181 176 178 187 194 191 196 201 202 199 205 212 206 205 203 215 215 220 225 227 231 227 230 230 244 250 251 247 244 241 244 242 243 246 245 240 250 254 247 246 247 256 262 267 269 272 270 268 263 257 258 260 258 251 249 248 249
320 323 325 322 324 327 327 322 317 55 182 129 149 133 136 134 141 153 159 165 176 180 175 175 171 171 184 180 184 183 193 194 201 206 217 209 202 204 214 227 227 209 205 208 213 226 227 228 223 225 219 241 239 244 245 231 230 227 232 236 232 230 231 234 236 240 247 246 244 253 251 253 248 251 253 252 251 251 250 249 251 250 247 245 246
320 322 323 327 331 334 333 333 341 5 208 212 203 178 162 156 156 165 169 177 175 172 177 185 181 188 190 183 192 194 197 203 205 211 217 233 229 223 216 219 235 224 223 229 229 228 228 218 223 224 206 221 231 231 243 252 261 257 244 235 230 228 228 233 236 237 236 243 238 236 238 237 240 232 240 245 248 245 248 248 247 243 242 243 241
322 325 327 333 332 334 332 332 331 314 241 231 217 198 176 174 164 179 183 185 170 174 187 194 191 203 193 191 192 201 204 208 212 215 216 226 238 239 237 238 235 230 225 232 244 249 251 238 215 228 229 226 231 239 251 253 257 261 264 266 265 261 254 246 240 239 238 238 242 240 236 232 232 230 234 243 248 249 248 246 246 242 240 240 242